[[{"header":{"parameterUnit":"m.s-1","parameterCategory":1,"la1":30.2991,"la2":30.254,"lo1":-89.0895,"lo2":-89.0444,"dy":0.0017,"dx":0.0017,"nx":28,"ny":28,"refTime":"2023-10-14T09:00:00:Z","depth":0,"parameterNumber":2,"parameterNumberName":"U-component_of_WINDS"},"data":[0,0,0,0,0,0,0,0,0,0,0,0,0,0,0,0,0,0,0,0,0,0,0,0,0,0,0,0,0,0,0,0,0,0,0,0,0,0,0,0,0,0,0,0,0,0,0,0,0,0,0,0,0,0,0,0,0,0,2.1171,2.1172,0,2.1197,2.1197,2.1198,2.1192,2.1192,2.1191,2.1191,2.1215,2.1216,2.1217,0,0,0,0,0,0,0,0,0,0,0,0,0,2.1117,2.1118,2.1171,2.1172,2.1172,2.1197,2.1197,2.1198,2.1192,2.1192,2.1191,2.119,2.1215,2.1216,2.1217,0,0,0,0,0,0,0,0,0,0,0,0,0,2.1141,2.1118,2.1171,2.1172,2.1173,2.1197,2.1197,2.1198,2.1192,2.1192,2.1191,2.119,2.1214,2.1216,2.1217,2.1242,0,0,2.1222,2.1223,0,0,0,0,0,0,0,0,2.114,2.1143,2.1172,2.1172,2.1173,2.1191,2.1187,2.1212,2.1192,2.1185,2.1191,2.119,2.1207,2.121,2.1216,2.1243,2.1244,2.1223,2.1224,2.1224,2.1225,0,0,0,0,0,0,0,2.1138,2.1142,2.1181,2.1172,2.1173,2.1171,2.1174,2.1192,2.12,2.1185,2.1185,2.1188,2.1207,2.1214,2.1216,2.1244,2.1223,2.1224,2.1225,2.1226,2.1293,2.1294,0,0,0,0,0,0,2.1136,2.1141,2.1181,2.1182,2.1154,2.1173,2.1176,2.1186,2.1199,2.1201,2.1189,2.1188,2.1212,2.1214,2.1217,2.1246,2.1224,2.1226,2.1227,2.1292,2.1293,2.1294,0,0,0,0,0,0,2.1135,2.114,2.118,2.1162,2.1166,2.1175,2.1186,2.1186,2.1193,2.1202,2.1203,2.1194,2.1211,2.1215,2.1236,2.1247,2.1227,2.1228,2.1291,2.1292,2.1293,2.1305,0,0,0,0,0,0,2.1134,2.114,2.1149,2.1162,2.1167,2.1198,2.1186,2.1187,2.1196,2.1195,2.1208,2.1209,2.1211,2.1233,2.1237,2.1249,2.1229,2.129,2.1292,2.1293,2.1304,2.1306,2.1309,0,0,0,0,0,2.1132,2.1151,2.115,2.1154,2.1179,2.1199,2.1202,2.1204,2.1197,2.1207,2.1213,2.1209,2.1246,2.1236,2.124,2.1252,2.1289,2.1291,2.1293,2.1302,2.1306,2.1309,0,0,0,0,0,0,2.1138,2.1152,2.1151,2.1175,2.1186,2.1198,2.1209,2.1208,2.1221,2.1219,2.1221,2.1224,2.1246,2.1251,2.124,2.1277,2.1266,2.1269,2.1272,2.1275,2.1278,2.1276,2.1231,0,0,0,0,0,2.1142,2.1157,2.1169,2.1189,2.1194,2.1201,2.121,2.1211,2.1222,2.1226,2.1234,2.1244,2.1258,2.1267,2.1281,2.1305,2.1307,2.1316,2.1318,2.132,2.1322,2.1336,2.1339,2.13,2.13,2.13,0,0,2.1151,2.1161,2.117,2.119,2.1199,2.1214,2.1205,2.1221,2.1232,2.1229,2.1249,2.1255,2.1267,2.129,2.13,2.1295,2.1334,2.1323,2.1324,2.1325,2.1338,2.1342,2.1345,2.1301,2.1301,2.1301,0,0,2.1174,2.1183,2.1201,2.121,2.1224,2.1228,2.1233,2.1245,2.1249,2.127,2.1268,2.1281,2.1305,2.1314,2.1322,2.135,2.1347,2.1354,2.1367,2.1381,2.1384,2.1386,2.1396,2.14,2.1357,2.1357,2.1357,0,2.1183,2.1206,2.121,2.1227,2.1236,2.1235,2.1252,2.1261,2.1278,2.1284,2.1278,2.1309,2.1317,2.1342,2.1349,2.1356,2.136,2.1352,2.1383,2.1386,2.1388,2.1398,2.1401,2.1357,2.1357,2.1357,2.1357,0,2.1216,2.1232,2.1245,2.1262,2.1273,2.129,2.1296,2.1307,2.1307,2.1313,2.1334,2.1344,2.1359,2.1366,2.1366,2.1391,2.1387,2.1383,2.1372,2.1393,2.1402,2.1405,2.1359,2.1358,2.1358,2.1358,0,0,2.1242,2.1263,2.1267,2.1275,2.1291,2.1303,2.1321,2.1337,2.1345,2.1358,2.1372,2.1393,2.1389,2.1398,2.14,2.1411,2.1433,2.1405,2.1405,2.1409,2.146,2.1463,2.1467,2.1432,2.1432,2.1433,2.1459,0,2.1266,2.1297,2.1302,2.1329,2.1344,2.1344,2.1359,2.137,2.1376,2.1389,2.1396,2.1411,2.1404,2.141,2.1421,2.1428,2.1443,2.1426,2.1444,2.1445,2.144,2.1472,2.1475,2.1499,2.1463,2.1463,2.1464,0,2.1298,2.1312,2.1341,2.1355,2.1362,2.1375,2.1391,2.1404,2.1417,2.142,2.1431,2.1431,2.1449,2.1439,2.1464,2.1452,2.146,2.1465,2.1466,2.1466,2.1455,2.1473,2.1507,2.151,2.1469,2.1469,2.1468,0,2.1314,2.134,2.1361,2.1368,2.1385,2.1395,2.1402,2.1414,2.1424,2.1438,2.1444,2.1459,2.1467,2.1479,2.1484,2.1476,2.1508,2.1498,2.1511,2.1511,2.1517,2.1516,2.1551,2.1523,2.1523,2.1523,2.1523,0,2.1339,2.1357,2.1368,2.138,2.14,2.1406,2.1425,2.1432,2.1444,2.1457,2.1459,2.1471,2.1478,2.1492,2.1496,2.1515,2.1519,2.1522,2.1523,2.1521,2.1521,2.1525,2.1524,2.1524,2.1524,2.1524,2.1524,0,2.1359,2.1367,2.139,2.1405,2.141,2.1423,2.1436,2.1448,2.1455,2.1472,2.1477,2.1487,2.1503,2.151,2.153,2.1533,2.1555,2.1555,2.1551,2.1551,2.1563,2.1561,2.1602,2.1607,2.1576,2.1577,2.1577,0,2.1375,2.1388,2.1405,2.1415,2.1423,2.1439,2.1449,2.1456,2.1466,2.1483,2.1493,2.151,2.1523,2.155,2.1558,2.1574,2.1573,2.1587,2.1576,2.1574,2.1573,2.1571,2.1573,2.1588,2.1588,2.1589,2.1589,0,2.1401,2.1405,2.142,2.1436,2.1449,2.1462,2.1475,2.1483,2.1491,2.1503,2.152,2.1531,2.1552,2.1569,2.1585,2.1592,2.1592,2.1593,2.1596,2.1594,2.1591,2.1593,2.1555,2.1591,2.1591,2.1591,2.1591,2.1591,2.1419,2.1431,2.1445,2.1462,2.1473,2.1485,2.1497,2.1506,2.1521,2.1539,2.1542,2.156,2.1574,2.1596,2.1604,2.1618,2.1615,2.162,2.1621,2.1622,2.1623,2.159,2.1621,2.1621,2.1621,2.1621,2.1621,0,2.1444,2.1454,2.147,2.1488,2.1501,2.1501,2.1516,2.1527,2.1543,2.1556,2.157,2.159,2.1606,2.1617,2.1634,2.1643,2.1643,2.1647,2.1646,2.1648,2.1625,2.162,2.1647,2.1647,2.1647,2.1647,2.1647,2.1647,2.1459,2.148,2.1486,2.1512,2.1521,2.154,2.1548,2.156,2.157,2.1593,2.1607,2.1614,2.1626,2.1644,2.1659,2.1661,2.1667,2.1671,2.1673,2.1652,2.1649,2.1647,2.1642,2.1672,2.1672,2.1694,2.1694,2.1695]},{"header":{"parameterUnit":"m.s-1","parameterCategory":1,"la1":30.2991,"la2":30.254,"lo1":-89.0895,"lo2":-89.0444,"dy":0.0017,"dx":0.0017,"nx":28,"ny":28,"refTime":"2023-10-14T09:00:00:Z","depth":0,"parameterNumber":3,"parameterNumberName":"V-component_of_WINDS"},"data":[0,0,0,0,0,0,0,0,0,0,0,0,0,0,0,0,0,0,0,0,0,0,0,0,0,0,0,0,0,0,0,0,0,0,0,0,0,0,0,0,0,0,0,0,0,0,0,0,0,0,0,0,0,0,0,0,0,0,-8.4677,-8.4678,0,-8.4835,-8.4837,-8.4838,-8.4726,-8.4721,-8.4716,-8.4711,-8.4867,-8.4875,-8.4884,0,0,0,0,0,0,0,0,0,0,0,0,0,-8.427,-8.4278,-8.4676,-8.4678,-8.4681,-8.4835,-8.4837,-8.4839,-8.4727,-8.4721,-8.4715,-8.4709,-8.4864,-8.4874,-8.4885,0,0,0,0,0,0,0,0,0,0,0,0,0,-8.4439,-8.4281,-8.4676,-8.4643,-8.4642,-8.4834,-8.4837,-8.4839,-8.4728,-8.4721,-8.4713,-8.4706,-8.486,-8.4873,-8.4886,-8.5117,0,0,-8.4926,-8.4932,0,0,0,0,0,0,0,0,-8.443,-8.4454,-8.4646,-8.4646,-8.4645,-8.4753,-8.475,-8.4932,-8.473,-8.4695,-8.4711,-8.4703,-8.4835,-8.4849,-8.4895,-8.5124,-8.5131,-8.4928,-8.4936,-8.4941,-8.4945,0,0,0,0,0,0,0,-8.4418,-8.4447,-8.4739,-8.4649,-8.4648,-8.4618,-8.4634,-8.4784,-8.4805,-8.4698,-8.469,-8.4711,-8.4833,-8.4883,-8.4898,-8.5133,-8.4927,-8.4939,-8.4947,-8.4952,-8.5559,-8.5567,0,0,0,0,0,0,-8.441,-8.4438,-8.4734,-8.4744,-8.4517,-8.4632,-8.4649,-8.4726,-8.4803,-8.4807,-8.4717,-8.4705,-8.4864,-8.4883,-8.4903,-8.5179,-8.4941,-8.4953,-8.4961,-8.5551,-8.5561,-8.557,0,0,0,0,0,0,-8.4402,-8.4438,-8.4727,-8.4589,-8.4623,-8.4647,-8.4733,-8.4733,-8.4783,-8.4817,-8.482,-8.4765,-8.4859,-8.4885,-8.5065,-8.5182,-8.4959,-8.4971,-8.5541,-8.5554,-8.5565,-8.5732,0,0,0,0,0,0,-8.4391,-8.4436,-8.4526,-8.4592,-8.4631,-8.489,-8.4741,-8.4741,-8.4807,-8.4793,-8.4863,-8.4867,-8.4855,-8.5046,-8.5078,-8.5197,-8.4982,-8.5531,-8.5547,-8.5561,-8.5716,-8.5748,-8.5776,0,0,0,0,0,-8.4377,-8.4565,-8.4531,-8.4567,-8.4744,-8.4897,-8.4919,-8.4903,-8.4817,-8.4906,-8.4928,-8.4865,-8.5164,-8.5066,-8.5101,-8.5225,-8.5523,-8.5542,-8.556,-8.5702,-8.5742,-8.5775,0,0,0,0,0,0,-8.4509,-8.4573,-8.4536,-8.4751,-8.482,-8.4877,-8.499,-8.4945,-8.5038,-8.502,-8.4994,-8.501,-8.52,-8.523,-8.5119,-8.5452,-8.533,-8.5356,-8.5426,-8.5464,-8.5493,-8.5482,-8.4993,0,0,0,0,0,-8.4564,-8.4685,-8.4732,-8.4918,-8.4954,-8.4967,-8.5032,-8.5014,-8.5083,-8.5111,-8.5145,-8.5213,-8.5322,-8.5394,-8.5496,-8.5719,-8.5732,-8.5822,-8.5852,-8.5876,-8.5899,-8.6019,-8.6059,-8.563,-8.563,-8.563,0,0,-8.4677,-8.4727,-8.4804,-8.4946,-8.4997,-8.512,-8.4992,-8.5128,-8.5218,-8.513,-8.5304,-8.5332,-8.5405,-8.5608,-8.5699,-8.5639,-8.6021,-8.59,-8.5919,-8.5929,-8.6042,-8.6083,-8.6119,-8.5643,-8.5641,-8.5639,0,0,-8.4948,-8.4998,-8.5158,-8.5212,-8.5291,-8.5298,-8.5337,-8.5402,-8.5418,-8.5592,-8.5528,-8.5634,-8.5823,-8.5878,-8.593,-8.6221,-8.6166,-8.6254,-8.6412,-8.6528,-8.6562,-8.6592,-8.6696,-8.6733,-8.6277,-8.6278,-8.6278,0,-8.5078,-8.5264,-8.5245,-8.5387,-8.545,-8.5378,-8.5539,-8.5591,-8.5699,-8.5744,-8.5675,-8.591,-8.5954,-8.6169,-8.624,-8.6285,-8.6327,-8.6247,-8.6559,-8.6589,-8.6617,-8.6715,-8.6754,-8.6288,-8.6287,-8.6286,-8.6285,0,-8.542,-8.555,-8.5669,-8.5779,-8.5855,-8.6005,-8.6007,-8.6086,-8.6061,-8.6074,-8.6251,-8.6302,-8.6413,-8.6462,-8.6438,-8.6674,-8.6634,-8.6563,-8.644,-8.6668,-8.676,-8.6798,-8.6303,-8.6299,-8.6296,-8.6293,0,0,-8.5779,-8.5876,-8.592,-8.5969,-8.6051,-8.615,-8.6295,-8.6407,-8.6475,-8.6551,-8.6672,-8.6833,-8.6768,-8.6828,-8.6809,-8.6912,-8.7139,-8.6828,-8.6829,-8.6884,-8.7401,-8.7454,-8.7498,-8.7103,-8.711,-8.7115,-8.7395,0,-8.6054,-8.6312,-8.6299,-8.6539,-8.6658,-8.6591,-8.6718,-8.6781,-8.6797,-8.6898,-8.6914,-8.703,-8.6935,-8.6971,-8.7069,-8.709,-8.7242,-8.707,-8.7213,-8.7219,-8.7198,-8.7546,-8.7603,-8.7865,-8.743,-8.7436,-8.7441,0,-8.6409,-8.6501,-8.6755,-8.6819,-8.6868,-8.6983,-8.7084,-8.7182,-8.7251,-8.7255,-8.7323,-8.7286,-8.7432,-8.7305,-8.7503,-8.7387,-8.7444,-8.7463,-8.7473,-8.7486,-8.7344,-8.7569,-8.7948,-8.7987,-8.7497,-8.7493,-8.7489,0,-8.6646,-8.6832,-8.7008,-8.7051,-8.7131,-8.7213,-8.725,-8.7312,-8.7379,-8.7466,-8.7509,-8.761,-8.7666,-8.7744,-8.7736,-8.7644,-8.7938,-8.781,-8.7944,-8.7945,-8.801,-8.8006,-8.8404,-8.8047,-8.8046,-8.8045,-8.8044,0,-8.6955,-8.7113,-8.7116,-8.7224,-8.7398,-8.738,-8.7551,-8.7578,-8.7634,-8.7745,-8.7691,-8.7795,-8.7778,-8.7881,-8.7875,-8.8041,-8.8066,-8.8072,-8.8069,-8.8078,-8.8077,-8.8115,-8.8097,-8.8055,-8.8053,-8.8051,-8.8049,0,-8.725,-8.7258,-8.7445,-8.7506,-8.7524,-8.765,-8.77,-8.7802,-8.7813,-8.7953,-8.7985,-8.8003,-8.8122,-8.8121,-8.8256,-8.8252,-8.8455,-8.843,-8.8433,-8.8428,-8.8562,-8.855,-8.8999,-8.9057,-8.8662,-8.8665,-8.8669,0,-8.7447,-8.7567,-8.7641,-8.7712,-8.7755,-8.787,-8.7939,-8.7925,-8.7999,-8.8086,-8.8177,-8.8291,-8.8383,-8.8576,-8.8599,-8.8702,-8.8679,-8.8829,-8.8694,-8.8699,-8.8682,-8.8675,-8.8687,-8.8856,-8.886,-8.8864,-8.8867,0,-8.7796,-8.7794,-8.7897,-8.8002,-8.8087,-8.8168,-8.8243,-8.8304,-8.8297,-8.8382,-8.8505,-8.8576,-8.8715,-8.8829,-8.8928,-8.8962,-8.8914,-8.8909,-8.8946,-8.8957,-8.8954,-8.8957,-8.8505,-8.8899,-8.8896,-8.8894,-8.8892,-8.8891,-8.8048,-8.8151,-8.822,-8.8336,-8.8392,-8.8463,-8.8561,-8.8586,-8.8689,-8.8803,-8.8787,-8.8923,-8.8987,-8.9116,-8.9159,-8.9264,-8.9211,-8.9264,-8.9278,-8.9291,-8.9306,-8.8937,-8.9282,-8.9281,-8.928,-8.9279,-8.9279,0,-8.8394,-8.8435,-8.8543,-8.865,-8.8741,-8.869,-8.8769,-8.8849,-8.8971,-8.9036,-8.9127,-8.9267,-8.9378,-8.941,-8.9516,-8.9593,-8.9574,-8.9622,-8.9616,-8.9625,-8.9347,-8.9306,-8.9636,-8.9636,-8.9636,-8.9636,-8.9636,-8.9635,-8.8586,-8.8759,-8.8765,-8.8964,-8.9002,-8.9138,-8.9188,-8.9253,-8.9305,-8.9465,-8.9557,-8.9578,-8.963,-8.9739,-8.9837,-8.9843,-8.9884,-8.9942,-8.9939,-8.968,-8.9644,-8.961,-8.957,-8.9951,-8.9951,-9.0207,-9.021,-9.0212]}]]